ARIANE 1 DEB, 40774

Orbit data source: Space-Track

ARIANE 1 DEB, 40774 is space debris in HEO originally from a launch on Mon, 24 Dec 1979 UTC launched from the French Guiana (FRGUI). Debris objects in space refer to the collection of defunct objects orbiting the Earth. Examples of debris include non-operational satellites, rocket bodies, and fragments generated from explosions, collisions, or faulty payload assembly.

Loading next visibility...
Identifier
40774, 1979-104AB
Orbit
HEO
Country
Flag of FRFR
Related business
Manufacturer
Unknown
Mission
Spacecraft
Bus & Motor
Unknown
Mass
Unknown
Launch date (UTC)
1979-12-24 (46 years ago)
Launch vehicle
Unknown
Launch site
French Guiana (FRGUI)
Object type
Payload
Rocket body
Debris
Shape & HBR
Unknown shape, 0.1 m
Radar Cross Section
Small (<0.1 m²)

Expand to show TLE details & history
Last TLE update: 1 day ago

TLE from 1 day ago
0 ARIANE 1 DEB
1 40774U 79104AB  26061.29863468  .00001993  00000-0  41475-2 0  9999
2 40774  18.5501 116.4645 5906122  25.7197 354.5902  4.01295210 36299
Epoch: 2026-03-02T07:10Z
TLE epoch observation values (Epoch: 2026-03-02T07:10:02.036Z)
Latitude
0.00005°
Longitude
-151.09231°
Altitude
721.63 km
Speed
9.405 km/s
True Right ascension
07h 46m 02s
True Declination
0° 00' 00"
Sunlit
Object was in full shadow at epoch
Visualization orbit readout
Latitude
Unknown
Longitude
Unknown
Altitude
Unknown
Speed
Unknown
Apparent Right ascension
Unknown
Apparent Declination
Unknown
Sunlit
N/A
Visualization observer readout
Local Sidereal Time
19:07:18
Azimuth
Unknown
Elevation
Unknown
Doppler factor
Unknown
Orbital elements
Apogee altitude
20,235.289 km
Perigee altitude
471.56 km
Semi-major axis
16,731.561 km
Eccentricity
0.59061
Inclination
18.5501°
RAAN
116.4645°
Arg. of periapsis
25.7197°
True anomaly
334.58617°
Mean anomaly
354.5902°
Eccentric anomaly
346.94807°
Mean motion
1.00286 °/min
Orbital period
358.97 mins
BSTAR
0.0041475
Loading maneuver chart data...
Computing Atmospheric mass density...
Loading historical data...
Loading historical data...
Loading historical data...
Loading historical data...
Loading historical data...
Loading historical data...
Loading historical data...

Documentation

Showing up to 5 results
|